Time,TemperatureF,DewpointF,PressureIn,WindDirection,WindDirectionDegrees,WindSpeedMPH,WindSpeedGustMPH,Humidity,HourlyPrecipIn,Conditions,Clouds,dailyrainin,SolarRadiationWatts/m^2,SoftwareType,DateUTC
2013-04-09 00:03:00,60.0,51.0,30.20,South,185,5.0,10.0,73,0.00,,,0.00,0.000000,,2013-04-09 04:03:00,
2013-04-09 00:10:00,60.0,51.0,30.20,SSW,192,4.0,8.0,72,0.00,,,0.00,0.000000,,2013-04-09 04:10:00,
2013-04-09 00:43:00,60.0,51.0,30.20,SSW,192,4.0,8.0,72,0.00,,,0.00,0.000000,,2013-04-09 04:43:00,
2013-04-09 00:53:00,60.0,51.0,30.20,SSW,192,4.0,8.0,72,0.00,,,0.00,0.000000,,2013-04-09 04:53:00,
2013-04-09 01:02:00,60.0,51.0,30.20,SSW,192,4.0,8.0,72,0.00,,,0.00,0.000000,,2013-04-09 05:02:00,
2013-04-09 01:10:00,57.0,49.0,30.21,NE,38,1.0,9.0,74,0.00,,,0.00,0.000000,,2013-04-09 05:10:00,
2013-04-09 01:32:00,57.0,49.0,30.21,NE,38,1.0,9.0,74,0.00,,,0.00,0.000000,,2013-04-09 05:32:00,
2013-04-09 01:43:00,57.0,49.0,30.21,NE,38,1.0,9.0,74,0.00,,,0.00,0.000000,,2013-04-09 05:43:00,
2013-04-09 01:52:00,57.0,49.0,30.21,NE,38,1.0,9.0,74,0.00,,,0.00,0.000000,,2013-04-09 05:52:00,
2013-04-09 02:02:00,57.0,49.0,30.21,NE,38,1.0,9.0,74,0.00,,,0.00,0.000000,,2013-04-09 06:02:00,
2013-04-09 02:10:00,60.0,50.0,30.22,SSW,197,6.0,11.0,70,0.00,,,0.00,0.000000,,2013-04-09 06:10:00,
2013-04-09 02:32:00,60.0,50.0,30.22,SSW,197,6.0,11.0,70,0.00,,,0.00,0.000000,,2013-04-09 06:32:00,
2013-04-09 02:42:00,60.0,50.0,30.22,SSW,197,6.0,11.0,70,0.00,,,0.00,0.000000,,2013-04-09 06:42:00,
2013-04-09 02:52:00,60.0,50.0,30.22,SSW,197,6.0,11.0,70,0.00,,,0.00,0.000000,,2013-04-09 06:52:00,
2013-04-09 03:02:00,60.0,50.0,30.22,SSW,197,6.0,11.0,70,0.00,,,0.00,0.000000,,2013-04-09 07:02:00,
2013-04-09 03:10:00,58.0,52.0,30.21,SSW,197,3.0,10.0,79,0.00,,,-99.99,0.000000,,2013-04-09 07:10:00,
2013-04-09 03:32:00,58.0,52.0,30.21,SSW,197,3.0,10.0,79,0.00,,,-99.99,0.000000,,2013-04-09 07:32:00,
2013-04-09 03:42:00,58.0,52.0,30.21,SSW,197,3.0,10.0,79,0.00,,,-99.99,0.000000,,2013-04-09 07:42:00,
2013-04-09 03:53:00,58.0,52.0,30.21,SSW,197,3.0,10.0,79,0.00,,,-99.99,0.000000,,2013-04-09 07:53:00,
2013-04-09 04:03:00,58.0,52.0,30.21,SSW,197,3.0,10.0,79,0.00,,,-99.99,0.000000,,2013-04-09 08:03:00,
2013-04-09 04:10:00,54.0,50.0,30.23,SW,217,4.0,8.0,85,0.00,,,0.00,0.000000,,2013-04-09 08:10:00,
2013-04-09 04:42:00,54.0,50.0,30.23,SW,217,4.0,8.0,85,0.00,,,0.00,0.000000,,2013-04-09 08:42:00,
2013-04-09 04:52:00,54.0,50.0,30.23,SW,217,4.0,8.0,85,0.00,,,0.00,0.000000,,2013-04-09 08:52:00,
2013-04-09 05:02:00,54.0,50.0,30.23,SW,217,4.0,8.0,85,0.00,,,0.00,0.000000,,2013-04-09 09:02:00,
2013-04-09 05:10:00,54.0,51.0,30.24,NNW,327,1.0,6.0,91,0.00,,,0.00,0.000000,,2013-04-09 09:10:00,
2013-04-09 05:44:00,54.0,51.0,30.24,NNW,327,1.0,6.0,91,0.00,,,0.00,0.000000,,2013-04-09 09:44:00,
2013-04-09 05:53:00,54.0,51.0,30.24,NNW,327,1.0,6.0,91,0.00,,,0.00,0.000000,,2013-04-09 09:53:00,
2013-04-09 06:04:00,54.0,51.0,30.24,NNW,327,1.0,6.0,91,0.00,,,0.00,0.000000,,2013-04-09 10:04:00,
2013-04-09 06:10:00,52.0,52.0,30.26,SSW,192,4.0,7.0,99,0.00,,,0.00,0.000000,,2013-04-09 10:10:00,
2013-04-09 06:33:00,52.0,52.0,30.26,SSW,192,4.0,7.0,99,0.00,,,0.00,0.000000,,2013-04-09 10:33:00,
2013-04-09 06:43:00,52.0,52.0,30.26,SSW,192,4.0,7.0,99,0.00,,,0.00,0.000000,,2013-04-09 10:43:00,
2013-04-09 06:54:00,52.0,52.0,30.26,SSW,192,4.0,7.0,99,0.00,,,0.00,0.000000,,2013-04-09 10:54:00,
2013-04-09 07:02:00,52.0,52.0,30.26,SSW,192,4.0,7.0,99,0.00,,,0.00,0.000000,,2013-04-09 11:02:00,
2013-04-09 07:10:00,51.0,50.0,30.27,SSW,202,3.0,5.0,98,0.00,,,0.00,0.000000,,2013-04-09 11:10:00,
2013-04-09 07:32:00,51.0,50.0,30.27,SSW,202,3.0,5.0,98,0.00,,,0.00,0.000000,,2013-04-09 11:32:00,
2013-04-09 07:43:00,51.0,50.0,30.27,SSW,202,3.0,5.0,98,0.00,,,0.00,0.000000,,2013-04-09 11:43:00,
2013-04-09 07:52:00,51.0,50.0,30.27,SSW,202,3.0,5.0,98,0.00,,,0.00,0.000000,,2013-04-09 11:52:00,
2013-04-09 08:02:00,51.0,50.0,30.27,SSW,202,3.0,5.0,98,0.00,,,0.00,0.000000,,2013-04-09 12:02:00,
2013-04-09 08:10:00,57.0,56.0,30.28,SSW,204,4.0,8.0,98,0.00,,,0.00,32.000000,,2013-04-09 12:10:00,
2013-04-09 08:33:00,57.0,56.0,30.28,SSW,204,4.0,8.0,98,0.00,,,0.00,32.000000,,2013-04-09 12:33:00,
2013-04-09 08:43:00,57.0,56.0,30.28,SSW,204,4.0,8.0,98,0.00,,,0.00,32.000000,,2013-04-09 12:43:00,
2013-04-09 08:53:00,57.0,56.0,30.28,SSW,204,4.0,8.0,98,0.00,,,0.00,32.000000,,2013-04-09 12:53:00,
2013-04-09 09:03:00,57.0,56.0,30.28,SSW,204,4.0,8.0,98,0.00,,,0.00,32.000000,,2013-04-09 13:03:00,
2013-04-09 09:10:00,65.0,55.0,30.30,SW,232,5.0,9.0,70,0.00,,,0.00,247.000000,,2013-04-09 13:10:00,
2013-04-09 09:33:00,65.0,55.0,30.30,SW,232,5.0,9.0,70,0.00,,,0.00,247.000000,,2013-04-09 13:33:00,
2013-04-09 09:43:00,65.0,55.0,30.30,SW,232,5.0,9.0,70,0.00,,,0.00,247.000000,,2013-04-09 13:43:00,
2013-04-09 09:53:00,65.0,55.0,30.30,SW,232,5.0,9.0,70,0.00,,,0.00,247.000000,,2013-04-09 13:53:00,
2013-04-09 10:03:00,65.0,55.0,30.30,SW,232,5.0,9.0,70,0.00,,,0.00,247.000000,,2013-04-09 14:03:00,
2013-04-09 10:10:00,73.0,56.0,30.30,SSW,211,4.0,9.0,56,0.00,,,0.00,554.000000,,2013-04-09 14:10:00,
2013-04-09 10:43:00,73.0,56.0,30.30,SSW,211,4.0,9.0,56,0.00,,,0.00,554.000000,,2013-04-09 14:43:00,
2013-04-09 10:53:00,73.0,56.0,30.30,SSW,211,4.0,9.0,56,0.00,,,0.00,554.000000,,2013-04-09 14:53:00,
2013-04-09 11:02:00,73.0,56.0,30.30,SSW,211,4.0,9.0,56,0.00,,,0.00,554.000000,,2013-04-09 15:02:00,
2013-04-09 11:10:00,79.0,58.0,30.31,SSW,193,3.0,9.0,48,0.00,,,0.00,797.000000,,2013-04-09 15:10:00,
2013-04-09 11:34:00,79.0,58.0,30.31,SSW,193,3.0,9.0,48,0.00,,,0.00,797.000000,,2013-04-09 15:34:00,
2013-04-09 11:44:00,79.0,58.0,30.31,SSW,193,3.0,9.0,48,0.00,,,0.00,797.000000,,2013-04-09 15:44:00,
2013-04-09 11:54:00,79.0,58.0,30.31,SSW,193,3.0,9.0,48,0.00,,,0.00,797.000000,,2013-04-09 15:54:00,
2013-04-09 12:03:00,79.0,58.0,30.31,SSW,193,3.0,9.0,48,0.00,,,0.00,797.000000,,2013-04-09 16:03:00,
2013-04-09 12:10:00,81.0,55.0,30.30,SSW,198,5.0,14.0,41,0.00,,,-99.99,989.000000,,2013-04-09 16:10:00,
2013-04-09 12:34:00,81.0,55.0,30.30,SSW,198,5.0,14.0,41,0.00,,,-99.99,989.000000,,2013-04-09 16:34:00,
2013-04-09 12:43:00,81.0,55.0,30.30,SSW,198,5.0,14.0,41,0.00,,,-99.99,989.000000,,2013-04-09 16:43:00,
2013-04-09 12:54:00,81.0,55.0,30.30,SSW,198,5.0,14.0,41,0.00,,,-99.99,989.000000,,2013-04-09 16:54:00,
2013-04-09 13:02:00,81.0,55.0,30.30,SSW,198,5.0,14.0,41,0.00,,,-99.99,989.000000,,2013-04-09 17:02:00,
2013-04-09 13:10:00,81.0,53.0,30.27,SSW,203,8.0,14.0,38,0.00,,,0.00,1076.000000,,2013-04-09 17:10:00,
2013-04-09 13:33:00,81.0,53.0,30.27,SSW,203,8.0,14.0,38,0.00,,,0.00,1076.000000,,2013-04-09 17:33:00,
2013-04-09 13:43:00,81.0,53.0,30.27,SSW,203,8.0,14.0,38,0.00,,,0.00,1076.000000,,2013-04-09 17:43:00,
2013-04-09 13:54:00,81.0,53.0,30.27,SSW,203,8.0,14.0,38,0.00,,,0.00,1076.000000,,2013-04-09 17:54:00,
2013-04-09 14:03:00,81.0,53.0,30.27,SSW,203,8.0,14.0,38,0.00,,,0.00,1076.000000,,2013-04-09 18:03:00,
2013-04-09 14:10:00,87.0,54.0,30.25,South,191,5.0,19.0,33,0.00,,,0.00,1045.000000,,2013-04-09 18:10:00,
2013-04-09 14:33:00,87.0,54.0,30.25,South,191,5.0,19.0,33,0.00,,,0.00,1045.000000,,2013-04-09 18:33:00,
2013-04-09 14:43:00,87.0,54.0,30.25,South,191,5.0,19.0,33,0.00,,,0.00,1045.000000,,2013-04-09 18:43:00,
2013-04-09 14:53:00,87.0,54.0,30.25,South,191,5.0,19.0,33,0.00,,,0.00,1045.000000,,2013-04-09 18:53:00,
2013-04-09 15:03:00,87.0,54.0,30.25,South,191,5.0,19.0,33,0.00,,,0.00,1045.000000,,2013-04-09 19:03:00,
2013-04-09 15:10:00,86.0,54.0,30.23,SW,236,10.0,18.0,34,0.00,,,0.00,841.000000,,2013-04-09 19:10:00,
2013-04-09 15:53:00,86.0,54.0,30.23,SW,236,10.0,18.0,34,0.00,,,0.00,841.000000,,2013-04-09 19:53:00,
2013-04-09 16:03:00,86.0,54.0,30.23,SW,236,10.0,18.0,34,0.00,,,0.00,841.000000,,2013-04-09 20:03:00,
2013-04-09 16:10:00,85.0,53.0,30.21,SSW,208,10.0,22.0,33,0.00,,,0.00,898.000000,,2013-04-09 20:10:00,
2013-04-09 16:44:00,85.0,53.0,30.21,SSW,208,10.0,22.0,33,0.00,,,0.00,898.000000,,2013-04-09 20:44:00,
2013-04-09 16:53:00,85.0,53.0,30.21,SSW,208,10.0,22.0,33,0.00,,,0.00,898.000000,,2013-04-09 20:53:00,
2013-04-09 17:03:00,85.0,53.0,30.21,SSW,208,10.0,22.0,33,0.00,,,0.00,898.000000,,2013-04-09 21:03:00,
2013-04-09 17:10:00,85.0,52.0,30.20,SSW,196,10.0,21.0,32,0.00,,,0.00,663.000000,,2013-04-09 21:10:00,
2013-04-09 17:53:00,85.0,52.0,30.20,SSW,196,10.0,21.0,32,0.00,,,0.00,663.000000,,2013-04-09 21:53:00,
2013-04-09 18:03:00,85.0,52.0,30.20,SSW,196,10.0,21.0,32,0.00,,,0.00,663.000000,,2013-04-09 22:03:00,
2013-04-09 18:10:00,83.0,52.0,30.20,SSW,209,8.0,22.0,34,0.00,,,-99.99,465.000000,,2013-04-09 22:10:00,
2013-04-09 18:33:00,83.0,52.0,30.20,SSW,209,8.0,22.0,34,0.00,,,-99.99,465.000000,,2013-04-09 22:33:00,
2013-04-09 18:43:00,83.0,52.0,30.20,SSW,209,8.0,22.0,34,0.00,,,-99.99,465.000000,,2013-04-09 22:43:00,
2013-04-09 18:54:00,83.0,52.0,30.20,SSW,209,8.0,22.0,34,0.00,,,-99.99,465.000000,,2013-04-09 22:54:00,
2013-04-09 19:03:00,83.0,52.0,30.20,SSW,209,8.0,22.0,34,0.00,,,-99.99,465.000000,,2013-04-09 23:03:00,
2013-04-09 19:10:00,80.0,51.0,30.20,SW,214,6.0,17.0,37,0.00,,,0.00,251.000000,,2013-04-09 23:10:00,
2013-04-09 19:33:00,80.0,51.0,30.20,SW,214,6.0,17.0,37,0.00,,,0.00,251.000000,,2013-04-09 23:33:00,
2013-04-09 19:43:00,80.0,51.0,30.20,SW,214,6.0,17.0,37,0.00,,,0.00,251.000000,,2013-04-09 23:43:00,
2013-04-09 19:53:00,80.0,51.0,30.20,SW,214,6.0,17.0,37,0.00,,,0.00,251.000000,,2013-04-09 23:53:00,
2013-04-09 20:03:00,80.0,51.0,30.20,SW,214,6.0,17.0,37,0.00,,,0.00,251.000000,,2013-04-10 00:03:00,
2013-04-09 20:10:00,75.0,52.0,30.21,SSW,204,5.0,13.0,45,0.00,,,-99.99,30.000000,,2013-04-10 00:10:00,
2013-04-09 20:43:00,75.0,52.0,30.21,SSW,204,5.0,13.0,45,0.00,,,-99.99,30.000000,,2013-04-10 00:43:00,
2013-04-09 20:53:00,75.0,52.0,30.21,SSW,204,5.0,13.0,45,0.00,,,-99.99,30.000000,,2013-04-10 00:53:00,
2013-04-09 21:02:00,75.0,52.0,30.21,SSW,204,5.0,13.0,45,0.00,,,-99.99,30.000000,,2013-04-10 01:02:00,
2013-04-09 21:10:00,68.0,55.0,30.23,South,186,5.0,7.0,63,0.00,,,0.00,0.000000,,2013-04-10 01:10:00,
2013-04-09 21:33:00,68.0,55.0,30.23,South,186,5.0,7.0,63,0.00,,,0.00,0.000000,,2013-04-10 01:33:00,
2013-04-09 21:43:00,68.0,55.0,30.23,South,186,5.0,7.0,63,0.00,,,0.00,0.000000,,2013-04-10 01:43:00,
2013-04-09 21:53:00,68.0,55.0,30.23,South,186,5.0,7.0,63,0.00,,,0.00,0.000000,,2013-04-10 01:53:00,
2013-04-09 22:03:00,68.0,55.0,30.23,South,186,5.0,7.0,63,0.00,,,0.00,0.000000,,2013-04-10 02:03:00,
2013-04-09 22:10:00,64.0,55.0,30.23,South,176,3.0,6.0,72,0.00,,,0.00,0.000000,,2013-04-10 02:10:00,
2013-04-09 22:33:00,64.0,55.0,30.23,South,176,3.0,6.0,72,0.00,,,0.00,0.000000,,2013-04-10 02:33:00,
2013-04-09 22:43:00,64.0,55.0,30.23,South,176,3.0,6.0,72,0.00,,,0.00,0.000000,,2013-04-10 02:43:00,
2013-04-09 22:53:00,64.0,55.0,30.23,South,176,3.0,6.0,72,0.00,,,0.00,0.000000,,2013-04-10 02:53:00,
2013-04-09 23:03:00,64.0,55.0,30.23,South,176,3.0,6.0,72,0.00,,,0.00,0.000000,,2013-04-10 03:03:00,
2013-04-09 23:10:00,67.0,55.0,30.21,SSW,203,4.0,8.0,66,0.00,,,0.00,0.000000,,2013-04-10 03:10:00,
2013-04-09 23:43:00,67.0,55.0,30.21,SSW,203,4.0,8.0,66,0.00,,,0.00,0.000000,,2013-04-10 03:43:00,
2013-04-09 23:53:00,67.0,55.0,30.21,SSW,203,4.0,8.0,66,0.00,,,0.00,0.000000,,2013-04-10 03:53:00,